Lid_Strength_Index
5 5 5 6 6 7 7 7 7 6 7 7 7 7 7 7 8 9 9 10 11 11 11 11 13 12 13 13 13 13 13 13 16 17 17 17 16 13 14 14 14 13 12
6 6 6 6 6 6 7 7 7 6 6 6 7 7 7 8 8 8 9 10 10 10 11 11 12 12 12 12 12 13 13 13 15 18 17 17 17 15 15 15 14 14 12
6 6 6 6 7 7 7 7 7 7 7 6 6 7 7 7 8 8 9 9 10 11 12 12 12 13 13 13 13 13 13 14 15 17 18 17 18 15 17 17 17 16 14
6 7 7 7 7 8 8 8 7 7 7 6 6 7 7 7 8 9 10 10 11 11 12 12 13 13 13 14 14 13 14 15 16 17 18 19 18 18 16 18 18 17 16
7 7 7 8 8 8 8 8 7 7 7 7 6 7 7 7 8 9 10 11 12 12 12 11 12 12 13 14 14 15 15 16 16 18 19 19 19 19 18 18 19 18 17
7 7 7 7 8 9 9 10 9 9 9 7 7 8 8 8 8 9 11 12 13 13 13 12 12 12 12 13 13 14 14 16 17 18 18 19 19 19 19 18 19 19 18
8 8 8 9 9 10 10 10 10 11 9 8 9 9 9 9 8 8 10 12 13 13 13 13 13 13 14 14 14 15 15 15 15 17 19 19 20 19 18 18 17 18 19
10 11 11 11 11 11 10 11 10 9 9 9 10 9 9 9 8 9 10 13 13 13 14 13 14 15 16 16 17 18 18 17 17 18 19 18 18 18 17 17 18 19 19
10 10 10 10 10 10 10 10 10 10 10 10 10 9 9 9 8 9 11 13 14 14 13 14 15 16 15 15 17 17 18 17 15 15 15 16 16 16 16 18 19 19 20
10 10 10 10 10 10 10 10 10 10 11 10 11 11 9 10 9 10 11 13 15 15 14 14 15 16 15 15 17 17 19 20 19 20 21 20 19 17 16 17 16 19 21
10 10 10 10 10 10 10 11 11 11 12 13 13 13 11 10 10 10 11 14 15 15 15 15 15 14 15 15 15 17 19 19 20 20 20 20 20 21 22 21 19 18 20
10 10 10 10 10 10 11 11 12 12 15 17 15 13 14 11 10 10 11 13 13 15 16 15 14 13 14 14 16 15 16 19 20 20 20 21 20 21 22 21 20 19 19
10 10 10 10 10 11 12 14 13 14 16 14 14 15 15 12 11 11 12 12 13 16 15 14 13 13 14 15 15 15 18 19 20 20 20 21 22 23 22 19 19 18 19
9 10 10 11 11 11 12 12 13 15 14 13 13 14 14 13 13 13 14 15 15 15 14 15 16 17 18 17 15 18 19 19 19 21 21 22 22 20 19 20 19 19 19
10 10 11 11 12 12 12 12 12 13 12 13 13 13 14 14 14 13 15 16 16 17 18 18 18 18 19 19 20 21 21 20 20 21 20 20 20 19 19 19 19 19 20
11 11 11 12 13 12 12 11 10 10 10 11 11 12 12 12 12 12 14 14 14 15 18 19 20 19 19 19 20 20 21 20 20 19 20 19 20 19 20 20 19 20 20
11 11 11 11 12 12 12 13 13 11 10 10 11 11 12 12 12 12 13 13 14 15 19 19 20 20 20 19 19 19 19 19 18 18 18 19 19 19 19 20 20 20 20
14 12 13 13 13 13 14 14 16 14 13 12 11 11 11 11 11 12 12 13 16 17 18 19 19 19 18 18 18 18 18 18 18 19 19 19 19 19 19 19 19 20 19
15 17 15 15 15 13 14 14 15 15 14 13 12 12 11 11 11 11 12 16 18 19 18 18 18 18 17 17 18 18 19 19 19 20 19 19 19 18 18 18 18 20 19
16 15 14 14 14 13 13 14 14 14 14 13 13 14 13 14 14 16 20 19 18 18 17 17 17 16 16 17 18 19 19 19 20 19 20 19 18 17 18 18 19 19 19
14 13 14 14 14 14 14 14 14 14 14 14 14 13 13 14 17 18 18 19 18 17 18 16 16 16 16 17 17 17 17 17 18 18 19 18 19 18 17 17 18 18 18
13 12 13 14 13 14 13 13 14 14 15 16 16 16 15 16 16 17 17 18 18 16 16 16 16 15 15 15 16 16 17 18 17 17 18 19 18 17 18 18 18 18 18
11 11 12 13 14 15 15 15 17 18 18 18 17 17 16 16 16 16 18 22 19 19 18 17 17 17 16 15 15 15 16 16 16 16 17 17 18 18 18 19 19 19 19
11 11 11 12 13 16 17 20 20 19 19 20 21 21 20 21 22 21 23 24 22 22 22 20 17 17 17 17 15 14 15 15 15 16 16 17 17 18 19 19 19 20 20
11 11 12 12 16 18 19 19 21 21 21 21 23 23 21 21 21 23 23 23 22 23 21 21 20 18 17 19 17 16 16 15 16 16 16 16 17 18 19 19 20 20 22
13 13 15 15 17 18 19 20 21 21 21 22 21 20 19 20 19 21 21 21 22 22 21 21 19 19 18 18 17 17 17 17 17 17 17 17 18 19 20 20 22 22 22